Monroe, MI

11:05 AM EDT on June 21, 2018 (GMT -0400)
Custer

Weather History for KTTF - November, 2017

Change the Weather History Date:

Tuesday, November 14, 2017

  Actual Average Record
Temperature  
Mean Temperature 39 °F -  
Max Temperature 46 °F 45 °F 72 °F (1989)
Min Temperature 32 °F 31 °F 14 °F (1986)
Degree Days  
Heating Degree Days 26    
Moisture  
Dew Point 34 °F    
Average Humidity 79    
Maximum Humidity 96    
Minimum Humidity 62    
Precipitation  
Precipitation 0.00 in - - ()
Sea Level Pressure  
Sea Level Pressure 30.32 in    
Wind  
Wind Speed 2 mph (SSW)    
Max Wind Speed 8 mph    
Max Gust Speed -    
Visibility 7 miles    
Events      
Averages and records for this station are not official NWS values.
T = Trace of Precipitation, MM = Missing Value Source: NWS Daily Summary

Daily Weather History Graph

Daily Weather History Graph

Search for Another Location

Airport or City:

Astronomy

Nov. 14, 2017 Rise Set
Actual Time 7:22 AM EST 5:13 PM EST
Civil Twilight 6:52 AM EST 5:43 PM EST
Nautical Twilight 6:18 AM EST 6:17 PM EST
Astronomical Twilight 5:45 AM EST 6:49 PM EST
Moon 3:17 AM EST (11/14) 3:41 PM EST (11/14)
Length of Visible Light 10h 50m
Length of Day
9h 50m
Waning Crescent, 14% of the Moon is Illuminated
Nov 14
Waning Crescent
Nov 18
New
Nov 26
First Quarter
Dec 3
Full
Dec 10
Last Quarter

Hourly Weather History & Observations

Time (EST) Temp. Windchill Dew Point Humidity Pressure Visibility Wind Dir Wind Speed Gust Speed Precip Events Conditions
12:12 AM 38.7 °F - 34.7 °F 86% 30.39 in 10.0 mi Calm Calm - N/A   Overcast
12:32 AM 39.2 °F 37.0 °F 34.7 °F 84% 30.39 in 10.0 mi West 3.5 mph - N/A   Overcast
12:52 AM 38.3 °F - 34.3 °F 86% 30.39 in 10.0 mi Calm Calm - N/A   Overcast
1:13 AM 38.5 °F - 34.9 °F 87% 30.39 in 7.0 mi Calm Calm - N/A   Overcast
1:33 AM 38.7 °F - 34.7 °F 86% 30.39 in 7.0 mi Calm Calm - N/A   Overcast
1:53 AM 38.5 °F - 35.1 °F 87% 30.39 in 7.0 mi Calm Calm - N/A   Overcast
2:13 AM 39.0 °F - 35.4 °F 87% 30.39 in 7.0 mi Calm Calm - N/A   Overcast
2:33 AM 39.2 °F 37.0 °F 35.6 °F 87% 30.39 in 7.0 mi West 3.5 mph - N/A   Overcast
2:53 AM 38.7 °F 36.3 °F 34.9 °F 86% 30.39 in 7.0 mi West 3.5 mph - N/A   Overcast
3:13 AM 38.3 °F 35.9 °F 34.7 °F 87% 30.39 in 7.0 mi West 3.5 mph - N/A   Overcast
3:33 AM 38.3 °F - 34.9 °F 87% 30.39 in 7.0 mi Calm Calm - N/A   Overcast
3:53 AM 38.5 °F - 34.7 °F 86% 30.39 in 7.0 mi Calm Calm - N/A   Overcast
4:13 AM 38.5 °F - 34.7 °F 86% 30.39 in 7.0 mi Calm Calm - N/A   Overcast
4:33 AM 38.7 °F - 35.1 °F 87% 30.39 in 7.0 mi Calm Calm - N/A   Overcast
4:53 AM 38.3 °F - 35.2 °F 89% 30.39 in 5.0 mi Calm Calm - N/A   Overcast
5:14 AM 38.3 °F - 34.3 °F 86% 30.38 in 7.0 mi Calm Calm - N/A   Overcast
5:34 AM 38.7 °F - 33.8 °F 83% 30.39 in 7.0 mi Calm Calm - N/A   Overcast
5:54 AM 38.3 °F - 34.5 °F 86% 30.38 in 7.0 mi Calm Calm - N/A   Overcast
6:14 AM 37.6 °F - 34.0 °F 87% 30.38 in 5.0 mi Calm Calm - N/A   Mostly Cloudy
6:34 AM 35.6 °F - 32.7 °F 89% 30.38 in 5.0 mi Calm Calm - N/A   Scattered Clouds
6:54 AM 35.1 °F - 32.4 °F 90% 30.38 in 5.0 mi Calm Calm - N/A   Clear
7:14 AM 33.3 °F - 31.8 °F 94% 30.39 in 2.5 mi Calm Calm - N/A   Clear
7:34 AM 32.5 °F - 31.1 °F 94% 30.39 in 1.5 mi Calm Calm - N/A   Mist
7:54 AM 32.2 °F - 31.1 °F 96% 30.39 in 1.0 mi Calm Calm - N/A   Mist
8:14 AM 32.7 °F - 31.5 °F 95% 30.39 in 1.5 mi Calm Calm - N/A   Mist
8:34 AM 34.2 °F - 32.4 °F 93% 30.39 in 2.0 mi Calm Calm - N/A   Clear
8:54 AM 36.3 °F - 34.5 °F 93% 30.39 in 2.5 mi Calm Calm - N/A   Clear
9:15 AM 39.4 °F - 34.7 °F 83% 30.39 in 5.0 mi Calm Calm - N/A   Clear
9:35 AM 40.5 °F - 33.3 °F 75% 30.39 in 7.0 mi Calm Calm - N/A   Clear
9:55 AM 41.4 °F - 32.2 °F 70% 30.38 in 7.0 mi Calm Calm - N/A   Clear
10:15 AM 42.3 °F - 33.1 °F 70% 30.38 in 5.0 mi Calm Calm - N/A   Haze
10:35 AM 42.6 °F 40.9 °F 33.1 °F 69% 30.37 in 7.0 mi SSW 3.5 mph - N/A   Clear
10:55 AM 43.5 °F 40.9 °F 33.4 °F 68% 30.37 in 7.0 mi WSW 4.6 mph - N/A   Clear
11:15 AM 43.9 °F - 33.4 °F 67% 30.37 in 7.0 mi Calm Calm - N/A   Scattered Clouds
11:35 AM 44.6 °F 40.7 °F 33.8 °F 66% 30.36 in 7.0 mi WSW 6.9 mph - N/A   Mostly Cloudy
11:55 AM 45.3 °F 41.6 °F 34.0 °F 65% 30.35 in 7.0 mi WSW 6.9 mph - N/A   Mostly Cloudy
12:15 PM 45.1 °F 42.0 °F 33.8 °F 65% 30.34 in 7.0 mi WSW 5.8 mph - N/A   Overcast
12:35 PM 45.5 °F 43.2 °F 33.8 °F 64% 30.33 in 7.0 mi WSW 4.6 mph - N/A   Overcast
12:55 PM 45.5 °F 44.2 °F 35.1 °F 67% 30.32 in 7.0 mi SW 3.5 mph - N/A   Overcast
1:15 PM 46.0 °F 43.1 °F 33.8 °F 62% 30.32 in 7.0 mi SSW 5.8 mph - N/A   Overcast
1:31 PM 45.9 °F 41.7 °F 33.8 °F 63% 30.31 in 10.0 mi SW 8.1 mph - N/A   Mostly Cloudy
1:51 PM 46.0 °F 43.1 °F 34.0 °F 63% 30.31 in 7.0 mi WSW 5.8 mph - N/A   Mostly Cloudy
2:11 PM 46.2 °F 45.0 °F 34.2 °F 63% 30.30 in 10.0 mi WSW 3.5 mph - N/A   Mostly Cloudy
2:31 PM 46.8 °F - 34.3 °F 62% 30.29 in 10.0 mi WSW 6.9 mph - N/A   Mostly Cloudy
2:51 PM 46.4 °F - 34.5 °F 63% 30.29 in 10.0 mi Calm Calm - N/A   Mostly Cloudy
3:11 PM 46.6 °F - 34.0 °F 62% 30.28 in 10.0 mi WSW 3.5 mph - N/A   Overcast
3:31 PM 46.8 °F - 34.3 °F 62% 30.28 in 7.0 mi Calm Calm - N/A   Overcast
3:51 PM 46.4 °F 42.9 °F 34.2 °F 62% 30.27 in 7.0 mi SSE 6.9 mph - N/A   Mostly Cloudy
4:11 PM 45.5 °F 43.2 °F 34.0 °F 64% 30.27 in 7.0 mi SSE 4.6 mph - N/A   Scattered Clouds
4:31 PM 44.6 °F 42.2 °F 34.0 °F 66% 30.26 in 7.0 mi SSE 4.6 mph - N/A   Clear
4:52 PM 43.7 °F 42.1 °F 34.7 °F 71% 30.26 in 7.0 mi SSE 3.5 mph - N/A   Clear
5:12 PM 42.3 °F - 34.3 °F 74% 30.26 in 7.0 mi Calm Calm - N/A   Clear
5:32 PM 41.9 °F - 35.2 °F 77% 30.26 in 7.0 mi Calm Calm - N/A   Clear
5:53 PM 41.2 °F 39.2 °F 35.6 °F 81% 30.25 in 7.0 mi ESE 3.5 mph - N/A   Clear
6:13 PM 40.5 °F 37.3 °F 36.0 °F 84% 30.24 in 7.0 mi ESE 4.6 mph - N/A   Clear
6:33 PM 40.1 °F - 36.1 °F 86% 30.23 in 5.0 mi Calm Calm - N/A   Clear
6:53 PM 40.1 °F - 36.3 °F 86% 30.23 in 3.0 mi Calm Calm - N/A   Clear
7:13 PM 40.5 °F 38.4 °F 36.5 °F 86% 30.22 in 5.0 mi SE 3.5 mph - N/A   Haze
7:33 PM 41.2 °F 38.2 °F 36.1 °F 82% 30.23 in 7.0 mi SSE 4.6 mph - N/A   Clear
7:53 PM 40.8 °F 38.8 °F 35.1 °F 80% 30.23 in 7.0 mi SSE 3.5 mph - N/A   Clear
8:13 PM 40.6 °F 38.6 °F 34.7 °F 79% 30.23 in 10.0 mi South 3.5 mph - N/A   Clear
8:33 PM 40.5 °F 38.4 °F 34.0 °F 78% 30.22 in 10.0 mi SSE 3.5 mph - N/A   Clear
8:53 PM 40.8 °F 38.8 °F 34.0 °F 77% 30.22 in 10.0 mi SSE 3.5 mph - N/A   Clear
9:13 PM 40.8 °F 37.8 °F 34.3 °F 78% 30.22 in 10.0 mi SSE 4.6 mph - N/A   Clear
9:34 PM 39.4 °F 37.2 °F 34.0 °F 81% 30.22 in 7.0 mi SSE 3.5 mph - N/A   Clear
9:54 PM 39.9 °F 36.7 °F 34.7 °F 82% 30.22 in 7.0 mi SSE 4.6 mph - N/A   Clear
10:14 PM 39.9 °F 36.7 °F 34.7 °F 82% 30.22 in 7.0 mi SSE 4.6 mph - N/A   Clear
10:34 PM 39.9 °F 36.7 °F 35.4 °F 84% 30.21 in 7.0 mi SSE 4.6 mph - N/A   Clear
10:54 PM 39.4 °F 37.2 °F 34.9 °F 84% 30.21 in 7.0 mi South 3.5 mph - N/A   Clear
11:14 PM 38.3 °F - 34.5 °F 86% 30.20 in 7.0 mi Calm Calm - N/A   Clear
11:34 PM 38.5 °F - 34.5 °F 86% 30.20 in 7.0 mi Calm Calm - N/A   Scattered Clouds
11:54 PM 38.8 °F 36.5 °F 34.9 °F 86% 30.19 in 7.0 mi SSE 3.5 mph - N/A   Scattered Clouds